User: anonymous   Login
Location: La Comballaz
(46.3780°N, 7.0817°E)
Time: 09:37:21
(UTC+00:00)
Language:

UKube-1 - Orbit

View from above orbital plane
View from above orbital plane
View from above satellite
View from above satellite

Ground track
Ground track

The orbit data is extracted from the following two-line orbital elements,

1 40074U 14037F   22329.65381256  .00001916  00000-0  22543-3 0  9990
2 40074  98.3605 218.6158 0005107 120.5877 239.5840 14.86109943454001
Epoch (UTC): 25 November 2022 15:41:29
Eccentricity: 0.0005107
inclination: 98.3605°
perigee height: 606 km
apogee height: 613 km
right ascension of ascending node: 218.6158°
argument of perigee: 120.5877°
revolutions per day: 14.86109943
mean anomaly at epoch: 239.5840°
orbit number at epoch: 45400

The dashed part of the orbit path shows where the satellite is in the earth's shadow,  

DLR